STARLINK-31912, 59656

Orbit data source: Space-Track

STARLINK-31912, 59656 is a payload satellite owned by SpaceX/Seattle (US) in LEO that was launched on Mon, 06 May 2024 UTC via an FALCON 9 launch vehicle from the Air Force Eastern Test Range (AFETR). Payload-class satellites include a variety of spacecraft equipped with specific instruments for various scientific and technological missions. These include communications satellites like Starlink; space stations such as the ISS; scientific satellites like the Hubble; Earth observation satellites from companies like Planet Labs, Umbra, and HawkEye 360; GPS; miniature CubeSats for education and research; and military/defense satellites.

Loading next visibility...
Identifier
59656, 2024-084C
Orbit
LEO
Country
Flag of USUS
Related business
Manufacturer
SpaceX/Seattle
Mission
Operational Commercial Communications
Bus & Motor
STARLINK V2M, Unknown motor
Mass
730 kg wet, ~700 kg dry
Launch date (UTC)
2024-05-06 (2 years ago)
Launch vehicle
FALCON 9
Launch site
Air Force Eastern Test Range (AFETR)
Object type
Payload
Rocket body
Debris
Shape & HBR
Box + 2 Pan, 17.7 m
Radar Cross Section
33.884 m², Large (>1 m²)

Expand to show TLE details & history
Last TLE update: 22 hours ago

TLE from 22 hours ago
0 STARLINK-31912
1 59656U 24084C   26072.89305115 -.00000269  00000-0 -25667-6 0  9999
2 59656  43.0021  18.2670 0000549 299.6451  60.4346 15.27590842105014
Epoch: 2026-03-13T21:25Z
TLE epoch observation values (Epoch: 2026-03-13T21:25:59.619Z)
Latitude
-0.00001°
Longitude
-114.75348°
Altitude
482.606 km
Speed
7.626 km/s
True Right ascension
01h 13m 04s
True Declination
0° 00' 00"
Sunlit
Object was in daylight at epoch
Visualization orbit readout
Latitude
Unknown
Longitude
Unknown
Altitude
Unknown
Speed
Unknown
Apparent Right ascension
Unknown
Apparent Declination
Unknown
Sunlit
N/A
Visualization observer readout
Local Sidereal Time
00:03:47
Azimuth
Unknown
Elevation
Unknown
Doppler factor
Unknown
Orbital elements
Apogee altitude
485.338 km
Perigee altitude
484.585 km
Semi-major axis
6,863.098 km
Eccentricity
0.00005
Inclination
43.0021°
RAAN
18.267°
Arg. of periapsis
299.6451°
True anomaly
60.44007°
Mean anomaly
60.4346°
Eccentric anomaly
60.43734°
Mean motion
3.81736 °/min
Orbital period
94.31 mins
BSTAR
-2.5667e-7
Loading maneuver chart data...
Computing Atmospheric mass density...
Loading historical data...
Loading historical data...
Loading historical data...
Loading historical data...
Loading historical data...
Loading historical data...
Loading historical data...

Documentation

Showing up to 5 results
|